FENGYUN 1C DEB, 35203

Orbit data source: Space-Track

FENGYUN 1C DEB, 35203 is space debris in SSO originally from a launch on Mon, 10 May 1999 UTC launched from the Taiyaun Space Center, China (TSC). Fengyun 1C debris stems from the Chinese weather satellite Fengyun-1C, which was intentionally destroyed by a Chinese anti-satellite missile in 2007. This event dramatically increased the amount of space debris, with thousands of trackable fragments posing hazards to satellites and human spaceflight. The Fengyun 1C debris cloud has become a focal point in discussions about space sustainability and the need for international regulations to prevent the creation of new debris.

Loading next visibility...
Identifier
35203, 1999-025DPK
Orbit
SSO
Country
Flag of CNCN / PRC
Related business
Manufacturer
Unknown
Mission
Spacecraft
Bus & Motor
Unknown
Mass
Unknown
Launch date (UTC)
1999-05-10 (26 years ago)
Launch vehicle
Unknown
Launch site
Taiyaun Space Center, China (TSC)
Object type
Payload
Rocket body
Debris
Shape & HBR
Unknown shape, 0.1 m
Radar Cross Section
Small (<0.1 m²)

Expand to show TLE details & history
Last TLE update: 2 days ago

TLE from 2 days ago
0 FENGYUN 1C DEB
1 35203U 99025DPK 25296.15549956  .00004118  00000-0  46056-2 0  9993
2 35203 102.0708 254.7473 0515654 270.1308  84.0747 13.26184528589802
Epoch: 2025-10-23T03:43Z
TLE epoch observation values (Epoch: 2025-10-23T03:43:55.161Z)
Latitude
-0.00007°
Longitude
166.94867°
Altitude
1,143.681 km
Speed
7.291 km/s
True Right ascension
16h 58m 59s
True Declination
0° 00' 00"
Sunlit
Object was in daylight at epoch
Visualization orbit readout
Latitude
Unknown
Longitude
Unknown
Altitude
Unknown
Speed
Unknown
Apparent Right ascension
Unknown
Apparent Declination
Unknown
Sunlit
N/A
Visualization observer readout
Local Sidereal Time
13:49:34
Azimuth
Unknown
Elevation
Unknown
Doppler factor
Unknown
Orbital elements
Apogee altitude
1,547.284 km
Perigee altitude
770.009 km
Semi-major axis
7,536.784 km
Eccentricity
0.05157
Inclination
102.0708°
RAAN
254.7473°
Arg. of periapsis
270.1308°
True anomaly
89.98096°
Mean anomaly
84.0747°
Eccentric anomaly
87.0252°
Mean motion
3.31714 °/min
Orbital period
108.53 mins
BSTAR
0.0046056
Loading maneuver chart data...
Computing Atmospheric mass density...

Documentation

Showing up to 5 results
|